This is the latest recevied weather packets stored in our database for station/object KC5EZZ-2. If no packets are shown the sender has not sent any weather packets the latest 10 day(s).
| Time | Temp. | Humidity | Pressure | Rain* | Wind** | Luminosity | Snow |
|---|---|---|---|---|---|---|---|
| 1777507814 | 17.78° C | - | - | 0 mm | 4.92 m/s, 359° | - | - |
| 1777507514 | 17.78° C | - | - | 0 mm | 4.47 m/s, 24° | - | - |
| 1777507212 | 17.78° C | - | - | 0 mm | 4.02 m/s, 14° | - | - |
| 1777506912 | 17.78° C | - | - | 0 mm | 5.36 m/s, 357° | - | - |
| 1777506613 | 17.78° C | - | - | 0 mm | 3.58 m/s, 6° | - | - |
| 1777506310 | 17.78° C | - | - | 0 mm | 4.47 m/s, 17° | - | - |
| 1777506011 | 17.78° C | - | - | 0 mm | 4.02 m/s, 11° | - | - |
| 1777505711 | 18.33° C | - | - | 0 mm | 3.58 m/s, 336° | - | - |
| 1777505409 | 17.78° C | - | - | 0 mm | 4.92 m/s, 20° | - | - |
| 1777505110 | 17.78° C | - | - | 0 mm | 4.02 m/s, 336° | - | - |
| 1777504810 | 17.78° C | - | - | 0 mm | 4.92 m/s, 21° | - | - |
| 1777504508 | 18.33° C | - | - | 0 mm | 3.58 m/s, 48° | - | - |
| 1777504208 | 18.33° C | - | - | 0 mm | 4.47 m/s, 346° | - | - |
| 1777503909 | 18.33° C | - | - | 0 mm | 4.92 m/s, 10° | - | - |
| 1777503606 | 18.33° C | - | - | 0 mm | 5.36 m/s, 24° | - | - |
| 1777503307 | 18.33° C | - | - | 0 mm | 3.58 m/s, 10° | - | - |
| 1777503008 | 18.89° C | - | - | 0 mm | 3.13 m/s, 44° | - | - |
| 1777502705 | 18.33° C | - | - | 0 mm | 4.47 m/s, 6° | - | - |
| 1777502406 | 18.89° C | - | - | 0 mm | 4.47 m/s, 13° | - | - |
| 1777502106 | 18.89° C | - | - | 0 mm | 3.58 m/s, 17° | - | - |
| 1777501804 | 18.89° C | - | - | 0 mm | 3.13 m/s, 6° | - | - |
| 1777501504 | 18.33° C | - | - | 0 mm | 4.02 m/s, 11° | - | - |
| 1777501205 | 18.33° C | - | - | 0 mm | 4.02 m/s, 359° | - | - |
| 1777500902 | 18.33° C | - | - | 0 mm | 3.13 m/s, 11° | - | - |
| 1777500603 | 18.33° C | - | - | 0 mm | 4.02 m/s, 347° | - | - |
* Rain latest hour (hover to see other rain measurements)
** Current wind speed in m/s (hover to see current wind gust speed)